Powrót do katalogu

STARLINK-37682

AktywnyŁącznośćVLEO
NORAD 69209·PAYLOAD·🇺🇸 United States

Wystrzelony May 25, 2026 z Cape Canaveral Space Force Station

Loading…

Następne Przeloty (najbliższe 24 godziny)

TLE

ŚwieżeSource: CelesTrak SupGP

Epoka: Sep 14, 2026, 22:44 UTC

1 69209C 26114AD  26257.94770833 -.00054240  00000+0 -16026-2 0  2573
2 69209  53.1564 139.3760 0001320  89.8283  57.9425 15.34416097    18

Śledź STARLINK-37682 w czasie rzeczywistym z AllMySat

Download on the App Store